| time (UTC) | temp C | wind direction | speed KPH | gust KPH | rain 1hr cm | rain 24hr cm | rain mn cm | humidity % | barometer mb |
| 20260502210040 | 7 | 245 | 17.7 | 22.5 | 0.00 | 0.00 | 0.00 | 46 | 1015.6 |
| 20260502204537 | 6 | 247 | 17.7 | 22.5 | 0.00 | 0.00 | 0.00 | 46 | 1015.7 |
| 20260502203041 | 6 | 266 | 16.1 | 24.1 | 0.00 | 0.00 | 0.00 | 50 | 1015.8 |
| 20260502201538 | 6 | 257 | 19.3 | 27.4 | 0.00 | 0.00 | 0.00 | 46 | 1016.0 |
| 20260502200031 | 6 | 248 | 19.3 | 27.4 | 0.00 | 0.00 | 0.00 | 47 | 1016.2 |
| 20260502194527 | 6 | 250 | 20.9 | 30.6 | 0.00 | 0.00 | 0.00 | 51 | 1016.4 |
| 20260502193024 | 6 | 250 | 24.1 | 30.6 | 0.00 | 0.00 | 0.00 | 51 | 1016.6 |
| 20260502191528 | 6 | 239 | 22.5 | 27.4 | 0.00 | 0.00 | 0.00 | 56 | 1016.8 |
| 20260502190020 | 5 | 248 | 24.1 | 29.0 | 0.00 | 0.00 | 0.00 | 56 | 1016.9 |
| 20260502184519 | 5 | 255 | 22.5 | 29.0 | 0.00 | 0.00 | 0.00 | 60 | 1017.1 |
| 20260502183020 | 5 | 250 | 22.5 | 27.4 | 0.00 | 0.00 | 0.00 | 64 | 1017.1 |
| 20260502181515 | 5 | 250 | 22.5 | 30.6 | 0.00 | 0.00 | 0.00 | 68 | 1017.2 |
| 20260502163005 | 5 | 246 | 22.5 | 30.6 | 0.00 | 0.00 | 0.00 | 70 | 1017.4 |
| 20260502161504 | 5 | 249 | 22.5 | 29.0 | 0.00 | 0.00 | 0.00 | 73 | 1017.5 |
| 20260502151612 | 4 | 254 | 20.9 | 27.4 | 0.00 | 0.00 | 0.00 | 70 | 1017.8 |
| 20260502123001 | 2 | 250 | 0.0 | 11.3 | 0.00 | 0.00 | 0.00 | 86 | 1018.4 |
| 20260502121558 | 1 | 240 | 3.2 | 9.7 | 0.00 | 0.00 | 0.00 | 89 | 1018.5 |
| 20260502114552 | 0 | 259 | 3.2 | 9.7 | 0.00 | 0.00 | 0.00 | 92 | 1018.5 |
| 20260502113053 | 0 | 239 | 4.8 | 9.7 | 0.00 | 0.00 | 0.00 | 92 | 1018.4 |
| 20260502111546 | -2 | 255 | 0.0 | 3.2 | 0.00 | 0.00 | 0.00 | 92 | 1018.4 |
| 20260502110048 | -2 | 146 | 0.0 | 0.0 | 0.00 | 0.00 | 0.00 | 92 | 1018.3 |
| 20260502104545 | -2 | 185 | 0.0 | 1.6 | 0.00 | 0.00 | 0.00 | 90 | 1018.3 |
| 20260502103043 | -1 | 255 | 3.2 | 6.4 | 0.00 | 0.00 | 0.00 | 87 | 1018.3 |
| 20260502101559 | -3 | 247 | 0.0 | 4.8 | 0.00 | 0.00 | 0.00 | 92 | 1018.3 |
| 20260502071532 | -3 | 109 | 0.0 | 0.0 | 0.00 | 0.00 | 0.00 | 91 | 1017.9 |
| 20260502070052 | -2 | 109 | 0.0 | 0.0 | 0.00 | 0.00 | 0.00 | 91 | 1018.0 |
| 20260502064529 | -2 | 109 | 0.0 | 0.0 | 0.00 | 0.00 | 0.00 | 91 | 1018.1 |
| 20260502063032 | -2 | 110 | 0.0 | 0.0 | 0.00 | 0.00 | 0.00 | 91 | 1018.0 |
| 20260502061527 | -2 | 113 | 0.0 | 0.0 | 0.00 | 0.00 | 0.00 | 90 | 1018.1 |
| 20260502060036 | -2 | 113 | 0.0 | 0.0 | 0.00 | 0.00 | 0.00 | 91 | 1018.1 |
| 20260502054539 | -2 | 110 | 0.0 | 0.0 | 0.00 | 0.00 | 0.00 | 91 | 1018.2 |
| 20260502053024 | -2 | 110 | 0.0 | 0.0 | 0.00 | 0.00 | 0.00 | 90 | 1018.0 |
| 20260502051522 | -2 | 110 | 0.0 | 0.0 | 0.00 | 0.00 | 0.00 | 90 | 1018.1 |
| 20260502050023 | -1 | 110 | 0.0 | 0.0 | 0.00 | 0.00 | 0.00 | 90 | 1018.0 |
| 20260502044518 | -1 | 110 | 0.0 | 0.0 | 0.00 | 0.00 | 0.00 | 90 | 1017.9 |
| 20260502043017 | -1 | 110 | 0.0 | 0.0 | 0.00 | 0.00 | 0.00 | 89 | 1017.9 |
| 20260502041527 | -1 | 110 | 0.0 | 0.0 | 0.00 | 0.00 | 0.00 | 88 | 1017.9 |
| 20260502040021 | 0 | 110 | 0.0 | 0.0 | 0.00 | 0.00 | 0.00 | 87 | 1018.1 |
| 20260502034509 | 0 | 155 | 0.0 | 0.0 | 0.00 | 0.00 | 0.00 | 86 | 1018.0 |
| 20260502033011 | 0 | 213 | 0.0 | 0.0 | 0.00 | 0.00 | 0.00 | 84 | 1018.1 |
| 20260502031507 | 1 | 213 | 0.0 | 0.0 | 0.00 | 0.00 | 0.00 | 84 | 1018.0 |
| 20260502030007 | 1 | 201 | 0.0 | 0.0 | 0.00 | 0.00 | 0.00 | 83 | 1018.1 |
| 20260502024506 | 1 | 218 | 0.0 | 1.6 | 0.00 | 0.00 | 0.00 | 82 | 1018.1 |
| 20260502023017 | 2 | 214 | 0.0 | 0.0 | 0.00 | 0.00 | 0.00 | 82 | 1018.1 |
| 20260502021506 | 2 | 240 | 0.0 | 1.6 | 0.00 | 0.00 | 0.00 | 81 | 1018.2 |
| 20260502020004 | 2 | 245 | 0.0 | 3.2 | 0.00 | 0.00 | 0.00 | 80 | 1018.2 |
| 20260502014502 | 2 | 250 | 1.6 | 4.8 | 0.00 | 0.00 | 0.00 | 79 | 1018.0 |
| 20260502013002 | 3 | 241 | 0.0 | 6.4 | 0.00 | 0.00 | 0.00 | 80 | 1018.0 |
| 20260502011613 | 3 | 245 | 3.2 | 9.7 | 0.00 | 0.00 | 0.00 | 78 | 1017.8 |
| 20260502010100 | 3 | 255 | 6.4 | 12.9 | 0.00 | 0.00 | 0.00 | 80 | 1017.7 |
| 20260502004557 | 3 | 257 | 6.4 | 12.9 | 0.00 | 0.00 | 0.00 | 84 | 1017.6 |
| 20260502003056 | 3 | 268 | 8.0 | 17.7 | 0.00 | 0.00 | 0.00 | 82 | 1017.6 |
| 20260502001601 | 3 | 259 | 11.3 | 17.7 | 0.00 | 0.00 | 0.00 | 82 | 1017.4 |
| 20260502000106 | 3 | 254 | 12.9 | 16.1 | 0.00 | 0.00 | 0.00 | 82 | 1017.3 |
| 20260501234551 | 3 | 244 | 12.9 | 20.9 | 0.00 | 0.00 | 0.00 | 82 | 1017.2 |
| 20260501233104 | 3 | 253 | 12.9 | 20.9 | 0.00 | 0.00 | 0.00 | 83 | 1017.2 |
| 20260501231607 | 3 | 254 | 14.5 | 19.3 | 0.00 | 0.00 | 0.00 | 79 | 1017.1 |
| 20260501230114 | 3 | 251 | 17.7 | 22.5 | 0.00 | 0.00 | 0.00 | 80 | 1017.0 |
| 20260501224556 | 4 | 241 | 12.9 | 22.5 | 0.00 | 0.00 | 0.00 | 77 | 1017.0 |
| 20260501223053 | 4 | 249 | 19.3 | 24.1 | 0.00 | 0.00 | 0.00 | 79 | 1017.0 |
| 20260501221549 | 4 | 257 | 16.1 | 22.5 | 0.00 | 0.00 | 0.00 | 72 | 1016.9 |
| 20260501220044 | 4 | 238 | 9.7 | 19.3 | 0.00 | 0.00 | 0.00 | 71 | 1016.7 |
| 20260501214642 | 5 | 264 | 4.8 | 16.1 | 0.00 | 0.00 | 0.00 | 73 | 1016.5 |
| 20260501213041 | 5 | 249 | 1.6 | 20.9 | 0.00 | 0.00 | 0.00 | 71 | 1016.5 |
| 20260501211540 | 5 | 240 | 9.7 | 20.9 | 0.00 | 0.00 | 0.00 | 67 | 1016.3 |